Temperature
10 10 9 9 9 8 8 8 7 7 7 7 7 7 7 7 7 7 7 7 7 7 7 7 6 6 6 6 6 5 5 5 4 4 4 4 4 4 3 3 3 3 3
9 9 9 8 8 7 7 6 6 6 6 6 6 6 6 6 6 6 6 6 6 6 6 6 6 6 5 5 5 5 5 4 4 3 3 3 3 3 3 2 2 2 2
9 8 8 7 6 6 5 5 5 5 5 5 5 5 5 5 5 5 5 5 5 5 5 5 5 5 5 4 4 4 4 3 3 3 3 2 2 2 2 2 2 2 2
8 7 7 6 5 4 4 4 4 4 4 4 4 5 5 5 5 5 5 5 5 5 5 4 4 4 4 3 3 3 3 2 2 2 2 2 1 1 1 1 1 1 1
7 6 5 4 4 3 3 3 3 3 3 3 4 4 4 4 4 4 4 4 4 4 4 3 3 3 3 2 2 2 1 1 1 1 1 0 0 0 0 0 0 -0 -0
6 5 4 3 2 2 2 2 2 2 2 3 3 3 3 4 4 3 3 3 3 3 3 2 2 2 1 1 1 1 1 0 -0 -0 -1 -1 -1 -1 -1 -1 -1 -1 -2
5 4 3 2 2 1 1 1 1 1 2 2 2 2 2 3 3 3 3 3 2 2 2 1 1 1 0 0 -0 -0 -0 -1 -1 -1 -2 -2 -2 -2 -2 -2 -2 -3 -3
5 3 2 2 1 0 0 0 1 1 1 1 1 2 2 2 2 2 2 2 2 1 1 1 0 -0 -0 -1 -1 -1 -2 -2 -2 -2 -3 -3 -3 -3 -3 -3 -4 -3 -4
4 3 2 1 1 0 -0 0 0 1 1 1 1 1 1 1 1 1 1 1 1 1 1 0 -0 -1 -1 -1 -2 -2 -3 -3 -3 -3 -3 -3 -3 -3 -4 -4 -5 -5 -5
4 3 2 1 0 -0 -0 -0 0 0 0 1 1 1 1 1 1 1 1 1 0 0 -0 -1 -1 -1 -2 -2 -3 -3 -4 -4 -4 -4 -4 -4 -4 -4 -4 -5 -5 -5 -6
4 3 2 1 0 0 -0 -0 0 0 0 0 0 1 1 1 1 1 1 0 -0 -0 -1 -1 -1 -2 -2 -3 -3 -4 -4 -4 -4 -4 -5 -5 -5 -5 -5 -5 -5 -5 -6
4 3 2 1 1 0 0 0 0 0 0 0 0 0 1 0 0 0 0 0 -0 -1 -1 -1 -2 -2 -3 -3 -4 -4 -4 -4 -5 -5 -5 -5 -5 -5 -5 -5 -5 -6 -6
4 3 2 2 1 1 0 0 0 0 0 0 0 0 0 1 0 0 0 -0 -1 -1 -1 -2 -2 -2 -3 -3 -4 -4 -4 -5 -5 -5 -6 -5 -5 -5 -5 -5 -5 -5 -5
4 3 3 2 1 1 1 1 1 1 1 1 1 1 0 0 0 0 0 -0 -1 -1 -2 -2 -2 -3 -3 -4 -4 -4 -5 -5 -5 -5 -6 -5 -5 -5 -6 -6 -6 -6 -5
4 3 3 2 2 2 1 1 1 1 1 1 0 0 0 0 0 -0 -0 -0 -1 -1 -2 -2 -3 -3 -4 -4 -4 -4 -5 -5 -5 -5 -6 -6 -6 -6 -6 -6 -6 -6 -6
3 3 3 2 2 2 2 1 1 1 1 0 0 0 0 -0 -0 -0 -0 -1 -1 -2 -2 -2 -3 -4 -4 -4 -4 -5 -5 -5 -5 -6 -6 -6 -6 -6 -6 -6 -6 -6 -6
3 3 3 3 2 2 2 1 1 1 1 1 1 0 -0 -0 -1 -1 -1 -1 -1 -2 -3 -3 -3 -3 -4 -4 -4 -5 -5 -5 -5 -6 -6 -6 -6 -6 -6 -6 -6 -7 -6
3 3 2 2 2 2 2 1 1 1 1 1 1 0 -0 -0 -1 -1 -2 -2 -2 -2 -2 -3 -3 -3 -3 -4 -4 -4 -5 -5 -5 -6 -6 -6 -6 -6 -6 -6 -7 -7 -7
3 3 2 2 2 2 1 1 1 1 1 1 0 -0 -0 -1 -1 -2 -2 -2 -2 -2 -2 -3 -3 -3 -3 -4 -4 -4 -5 -5 -5 -6 -6 -6 -6 -7 -7 -7 -7 -7 -8
3 3 2 2 2 2 1 1 1 1 0 0 0 -0 -1 -1 -1 -2 -2 -2 -2 -2 -3 -3 -3 -3 -3 -4 -4 -4 -5 -5 -5 -6 -6 -6 -6 -7 -7 -7 -7 -8 -8
2 2 2 2 1 1 1 1 1 1 0 0 -0 -1 -1 -1 -2 -2 -2 -2 -2 -2 -3 -3 -3 -3 -3 -4 -4 -4 -4 -5 -5 -6 -6 -6 -7 -7 -7 -8 -8 -8 -8
2 2 1 1 1 1 1 1 1 1 0 0 0 -1 -1 -1 -2 -2 -2 -3 -3 -3 -3 -3 -3 -3 -3 -4 -4 -4 -4 -5 -5 -6 -6 -6 -7 -7 -8 -8 -8 -9 -9
1 1 1 1 0 0 0 0 0 0 0 0 -0 -0 -1 -1 -2 -2 -2 -3 -3 -3 -3 -3 -3 -3 -4 -4 -4 -4 -5 -5 -6 -6 -6 -7 -7 -7 -8 -8 -9 -9 -9
0 0 0 0 0 -0 -0 -0 -0 -0 -0 -0 -1 -1 -1 -2 -2 -2 -3 -3 -3 -3 -3 -4 -4 -4 -4 -4 -4 -4 -5 -5 -6 -6 -7 -7 -7 -8 -8 -8 -9 -9 -9
-0 -0 -0 -0 -0 -1 -1 -1 -1 -1 -1 -1 -1 -2 -2 -2 -3 -3 -3 -4 -4 -4 -4 -4 -4 -4 -4 -4 -4 -5 -5 -6 -6 -6 -7 -7 -8 -8 -8 -9 -9 -9 -10
-1 -1 -1 -1 -1 -1 -1 -1 -1 -2 -2 -2 -2 -3 -3 -3 -3 -3 -4 -4 -4 -4 -4 -4 -4 -4 -4 -4 -5 -5 -5 -6 -6 -7 -8 -8 -8 -9 -9 -10 -10 -10 -10
Wind_Speed
3 2 1 0 1 1 1 1 0 0 1 1 2 2 3 3 3 4 4 4 5 5 5 5 5 5 3 3 3 2 1 1 3 0 1 3 4 5 6 7 8 8 9
3 2 1 1 1 1 1 1 1 1 2 2 3 3 4 4 4 5 5 5 6 6 6 6 6 4 5 4 3 3 2 2 1 1 1 2 3 4 4 4 6 6 7
4 3 3 2 2 2 2 2 2 3 3 3 4 4 5 5 5 6 6 7 7 6 6 6 5 5 5 4 4 3 2 2 1 0 0 1 1 2 3 3 4 4 6
5 4 4 3 3 3 3 3 3 3 4 4 5 5 5 5 5 6 6 7 7 7 6 6 6 6 5 4 4 3 2 2 2 1 0 0 1 2 2 2 2 3 3
6 5 5 4 4 4 4 4 4 4 4 4 5 5 5 5 4 5 6 6 6 6 6 6 7 7 6 5 4 3 3 2 1 1 0 0 1 1 2 2 2 2 2
7 6 5 5 5 5 5 5 5 5 4 4 4 5 5 5 7 7 5 5 5 5 5 5 5 6 7 8 8 7 6 3 2 1 1 1 1 2 2 2 3 3 2
8 7 7 6 6 6 6 6 5 5 5 5 5 5 6 7 8 7 7 5 5 4 4 3 3 4 4 3 5 5 6 7 5 2 1 1 2 2 3 3 3 4 4
9 8 8 7 7 7 6 6 6 5 5 5 5 5 5 6 7 7 7 5 4 4 3 2 2 2 3 3 2 2 2 3 4 2 2 2 2 2 2 3 4 5 5
10 9 8 8 8 8 7 7 6 5 5 4 3 4 4 5 6 6 5 3 3 3 2 1 1 1 2 2 1 1 1 1 2 3 4 4 4 4 5 4 3 4 4
10 9 9 8 8 8 8 7 5 5 5 4 3 2 2 3 4 6 5 2 2 2 2 1 1 2 2 1 2 3 2 2 2 2 2 2 2 1 2 3 3 3 3
10 9 9 9 8 8 8 6 6 6 5 5 4 4 4 4 4 5 6 3 2 2 2 2 1 3 4 3 3 3 3 4 3 3 3 2 2 1 1 2 2 3 4
10 10 9 9 8 7 8 7 7 7 6 6 6 6 5 5 5 6 7 6 4 3 3 2 2 4 5 4 4 3 3 3 3 3 3 3 2 2 2 3 4 5 6
11 11 10 9 8 8 9 8 7 7 6 6 6 6 5 5 6 8 8 8 7 5 3 3 4 4 4 4 4 4 3 4 4 4 4 3 3 3 4 4 5 6 9
12 11 10 10 9 9 8 8 8 8 7 7 7 6 5 5 5 6 6 6 7 6 5 5 5 4 5 5 4 4 4 4 4 5 4 4 4 4 4 4 5 5 5
12 11 10 10 10 9 9 9 9 9 9 8 7 6 6 6 7 9 7 6 5 5 5 4 5 5 5 4 4 4 4 4 5 5 5 5 5 5 5 4 4 5 5
11 11 10 9 9 9 9 8 12 11 12 14 11 8 7 8 6 10 11 11 10 9 7 6 6 6 5 5 5 5 5 5 5 5 5 5 5 5 6 5 5 6 7
12 11 10 10 10 10 9 9 8 10 14 15 16 16 14 11 11 11 11 11 11 11 8 7 7 6 6 6 6 6 6 5 4 5 6 6 6 6 6 6 6 7 8
13 12 11 10 10 10 10 9 8 8 8 8 12 17 17 15 14 13 13 10 9 9 8 8 8 7 7 6 6 6 6 6 6 6 6 6 6 6 7 7 7 8 8
12 10 10 9 9 9 9 8 8 9 8 7 6 8 15 15 15 15 13 10 9 9 8 8 8 7 7 7 7 7 7 7 7 6 7 7 7 7 7 8 8 11 10
11 12 11 9 9 9 8 9 9 9 9 8 8 8 7 9 9 10 10 10 9 9 9 8 8 8 7 7 7 7 7 7 7 7 7 7 7 7 8 9 9 9 9
8 9 13 10 9 9 9 9 9 9 9 9 9 9 12 9 9 10 9 9 9 9 9 8 8 7 7 7 7 8 8 8 7 7 7 7 7 8 8 8 9 10 10
7 7 8 9 8 8 8 8 8 9 9 10 7 8 15 10 8 8 8 8 9 8 8 7 7 7 7 7 7 7 8 8 8 8 8 8 7 8 8 9 9 9 10
6 6 6 7 7 9 9 8 8 8 9 9 8 7 8 9 9 9 8 8 8 7 7 7 7 7 8 9 9 8 8 9 8 8 8 8 8 8 9 10 11 12 11
5 6 6 6 6 6 7 7 7 8 8 8 8 8 8 9 9 9 9 8 7 7 7 8 8 9 10 10 10 11 12 12 11 10 11 10 10 9 10 10 12 13 13
4 4 5 5 5 6 6 6 7 7 7 7 8 8 8 8 8 8 8 7 8 7 8 9 9 10 12 13 13 12 14 15 15 13 12 10 12 12 12 13 13 14 14
3 4 4 4 4 5 5 6 6 6 7 7 7 7 7 7 7 7 7 7 7 7 7 8 10 12 12 12 13 15 16 17 18 19 17 12 13 13 13 13 15 15 16
Wind_Direction
152 150 178 253 281 263 248 258 318 23 30 49 57 63 61 57 63 77 76 76 81 75 68 71 67 58 61 51 50 54 42 293 251 189 40 3 359 1 1 9 17 23 31
160 168 184 215 225 215 182 130 102 89 77 77 83 82 74 69 70 83 85 81 84 81 76 75 69 65 63 54 55 58 51 14 280 236 32 9 2 357 357 11 21 27 33
172 180 188 194 196 187 158 131 116 107 98 93 92 88 84 80 81 84 90 88 84 80 76 76 71 71 68 60 55 52 43 35 17 190 62 21 355 354 354 9 22 24 31
180 188 195 193 185 170 149 136 124 116 107 99 96 93 91 90 90 94 96 96 91 82 75 71 67 66 68 64 56 47 39 47 58 82 106 25 4 355 348 348 354 11 10
187 192 193 183 172 161 152 140 128 117 108 106 106 103 101 96 98 105 103 102 101 94 81 70 62 59 62 58 52 38 29 27 31 26 11 301 357 349 351 344 328 331 346
193 193 183 179 174 167 157 145 135 124 117 111 109 108 102 96 104 104 109 110 106 101 89 75 66 58 60 62 57 48 34 23 10 348 297 312 348 348 342 342 329 320 310
192 189 184 182 177 168 159 151 143 134 126 118 113 111 106 106 108 106 103 104 100 89 84 77 68 59 50 52 59 58 55 48 33 340 333 351 346 355 349 328 332 319 311
190 189 186 183 177 167 162 156 147 140 135 129 123 120 116 115 115 116 111 100 98 91 83 72 68 58 51 26 27 37 42 47 35 18 16 9 351 331 310 305 311 303 291
190 189 187 182 175 170 167 160 152 144 139 137 134 129 125 125 133 137 136 129 122 121 115 85 16 21 60 14 344 327 303 58 51 21 3 351 342 325 309 291 298 304 302
190 187 184 181 178 175 168 159 152 150 150 151 146 150 155 166 165 165 170 164 165 172 184 200 319 331 352 313 306 303 302 319 317 303 284 272 288 310 311 289 287 285 292
180 178 179 180 178 171 162 158 155 160 164 173 178 190 200 208 199 197 200 212 215 222 233 245 256 308 306 303 289 293 305 303 297 297 291 286 278 279 297 307 299 269 271
173 176 179 178 174 169 165 163 166 173 180 190 200 207 212 216 224 218 217 222 228 238 247 252 264 287 294 297 284 290 282 276 286 281 276 276 283 290 299 299 290 277 262
175 180 181 179 178 176 177 176 178 188 197 202 207 215 214 213 219 227 231 227 220 235 249 255 271 283 282 276 275 277 266 267 272 270 274 279 284 289 288 281 271 262 261
182 184 184 185 185 185 188 190 193 198 204 208 211 217 216 213 215 213 217 223 226 232 241 240 249 260 263 270 264 251 255 265 272 274 278 280 281 271 270 279 285 292 288
187 188 190 193 193 196 201 205 207 212 211 209 212 214 213 219 217 210 208 212 218 226 233 240 242 249 254 249 248 251 251 250 253 261 267 270 271 272 271 273 273 277 271
191 193 195 196 198 201 205 215 224 224 224 227 229 226 227 231 215 211 217 223 227 229 233 243 247 250 254 256 255 253 250 249 251 255 258 263 269 272 274 270 262 264 270
199 197 196 198 200 202 205 210 216 222 229 233 232 230 228 227 224 223 224 227 232 235 241 245 249 252 252 251 250 250 250 249 245 250 255 257 260 263 266 268 267 266 269
206 203 200 202 202 204 206 209 211 209 210 221 226 227 227 227 227 227 227 229 235 233 236 243 248 249 247 246 245 245 248 247 240 244 248 250 251 256 260 262 263 264 270
209 208 206 207 205 206 206 207 210 213 217 215 206 217 222 226 229 230 226 228 233 234 234 239 243 244 243 242 243 243 244 246 247 245 249 249 247 248 254 258 262 265 266
215 211 204 206 205 206 206 207 211 213 215 217 217 211 198 205 217 221 220 224 230 235 236 237 238 237 236 237 238 238 240 243 243 243 247 248 245 245 251 256 259 263 265
215 211 205 208 210 209 209 211 212 213 216 220 221 210 198 204 215 218 217 221 226 231 233 234 234 232 230 230 232 235 239 245 246 246 248 248 247 248 251 255 258 259 264
213 211 207 211 212 212 214 215 215 217 220 223 224 214 213 214 220 222 222 223 225 228 229 229 230 229 226 224 226 231 237 241 244 243 245 246 247 249 253 255 258 261 263
214 211 209 211 211 215 217 216 217 220 224 224 219 211 210 214 219 222 226 227 225 225 223 222 227 229 228 225 226 228 235 240 243 243 245 250 250 252 254 256 258 263 264
215 213 211 210 209 211 215 217 218 222 225 224 222 218 215 216 219 223 226 227 224 223 223 223 228 232 229 230 232 232 235 241 244 244 243 248 253 256 256 258 261 262 264
216 213 212 212 211 214 219 222 222 223 224 224 222 222 220 218 220 224 224 224 224 226 226 227 231 235 235 235 237 240 244 247 247 245 243 243 249 251 255 258 260 264 264
222 221 219 216 217 218 222 226 227 227 227 226 224 223 222 221 223 225 223 222 222 226 230 232 233 235 238 241 244 247 252 256 257 256 255 254 256 257 258 260 264 264 269
Height
1518 1518 1517 1516 1516 1515 1514 1513 1513 1513 1512 1512 1511 1511 1510 1510 1509 1509 1508 1508 1507 1507 1507 1507 1506 1506 1506 1505 1505 1505 1505 1505 1505 1503 1502 1500 1499 1498 1496 1495 1494 1493 1492
1514 1513 1512 1512 1511 1510 1509 1509 1509 1509 1509 1508 1508 1507 1507 1507 1506 1506 1505 1505 1505 1504 1504 1504 1503 1503 1503 1503 1502 1502 1502 1501 1501 1500 1499 1497 1496 1495 1494 1493 1492 1491 1491
1510 1509 1508 1507 1506 1506 1505 1505 1505 1505 1505 1505 1505 1505 1504 1504 1504 1503 1503 1503 1502 1502 1502 1501 1501 1501 1500 1500 1500 1499 1499 1498 1498 1497 1496 1495 1494 1493 1492 1491 1490 1489 1489
1505 1505 1504 1503 1502 1502 1502 1502 1502 1502 1502 1503 1502 1502 1502 1502 1502 1501 1501 1501 1500 1500 1500 1499 1499 1498 1498 1498 1497 1497 1496 1496 1495 1495 1494 1493 1492 1491 1490 1489 1488 1487 1486
1501 1500 1500 1499 1498 1498 1498 1499 1499 1500 1500 1500 1500 1500 1500 1500 1500 1499 1499 1499 1499 1498 1498 1497 1497 1496 1496 1496 1495 1495 1494 1493 1493 1492 1491 1490 1489 1488 1487 1486 1485 1484 1483
1497 1496 1495 1495 1495 1495 1496 1496 1497 1497 1498 1498 1498 1498 1498 1498 1498 1498 1498 1498 1497 1497 1496 1496 1495 1495 1494 1493 1493 1492 1492 1491 1490 1489 1488 1488 1486 1485 1484 1483 1482 1482 1481
1492 1492 1491 1492 1492 1492 1493 1494 1495 1495 1496 1496 1497 1497 1497 1497 1497 1497 1497 1496 1496 1495 1495 1494 1494 1493 1492 1491 1490 1489 1488 1487 1487 1487 1486 1485 1484 1482 1481 1480 1479 1479 1478
1488 1488 1488 1488 1489 1490 1491 1492 1493 1494 1494 1495 1495 1496 1496 1496 1496 1496 1495 1495 1495 1494 1493 1493 1492 1491 1490 1489 1488 1486 1485 1484 1483 1483 1482 1481 1480 1479 1479 1478 1477 1476 1475
1483 1484 1484 1485 1486 1488 1489 1490 1491 1492 1493 1494 1494 1495 1495 1495 1495 1495 1494 1494 1493 1492 1492 1491 1490 1489 1488 1486 1485 1484 1483 1482 1481 1480 1479 1478 1477 1476 1476 1475 1474 1474 1473
1480 1480 1481 1482 1484 1485 1487 1488 1490 1491 1492 1493 1493 1494 1494 1494 1494 1493 1493 1493 1492 1491 1490 1489 1488 1487 1485 1484 1483 1482 1481 1480 1479 1477 1477 1476 1475 1474 1473 1473 1472 1472 1471
1477 1477 1478 1480 1481 1483 1485 1487 1488 1489 1490 1491 1492 1492 1492 1493 1492 1492 1492 1491 1490 1489 1488 1487 1486 1484 1483 1482 1481 1480 1479 1478 1477 1476 1475 1474 1473 1472 1471 1471 1470 1469 1469
1473 1475 1476 1477 1479 1481 1483 1484 1486 1487 1489 1489 1490 1490 1491 1491 1491 1490 1490 1489 1488 1487 1486 1485 1483 1482 1481 1480 1478 1477 1476 1475 1475 1474 1473 1472 1471 1470 1469 1468 1467 1466 1466
1471 1472 1473 1475 1477 1478 1480 1482 1483 1485 1486 1487 1488 1488 1489 1489 1488 1488 1487 1487 1486 1485 1484 1482 1481 1479 1478 1477 1476 1475 1474 1473 1472 1471 1470 1469 1468 1467 1466 1465 1464 1463 1462
1468 1469 1471 1472 1474 1475 1477 1479 1480 1482 1483 1484 1485 1486 1486 1486 1486 1485 1485 1484 1483 1482 1481 1479 1478 1477 1475 1474 1473 1472 1471 1470 1469 1468 1467 1466 1465 1464 1463 1462 1461 1459 1458
1465 1466 1467 1469 1471 1472 1474 1476 1477 1479 1480 1481 1482 1483 1483 1483 1483 1483 1482 1481 1480 1479 1478 1476 1475 1474 1472 1471 1470 1469 1468 1467 1466 1465 1464 1463 1462 1460 1459 1458 1457 1455 1453
1461 1462 1464 1465 1467 1469 1470 1472 1473 1475 1476 1477 1478 1479 1479 1480 1479 1479 1478 1478 1477 1476 1474 1473 1472 1470 1469 1468 1466 1465 1464 1463 1462 1461 1460 1459 1458 1456 1455 1454 1452 1450 1448
1456 1458 1460 1461 1463 1464 1466 1467 1469 1470 1471 1472 1473 1474 1475 1475 1475 1475 1474 1474 1473 1472 1470 1469 1468 1466 1465 1464 1462 1461 1460 1459 1458 1457 1456 1455 1453 1452 1450 1449 1447 1445 1443
1451 1453 1454 1456 1458 1459 1461 1462 1464 1465 1466 1466 1468 1469 1469 1470 1470 1470 1470 1469 1468 1467 1466 1465 1463 1462 1460 1459 1458 1457 1456 1455 1453 1452 1451 1450 1448 1447 1445 1443 1441 1439 1437
1445 1447 1448 1450 1452 1453 1455 1456 1458 1459 1460 1461 1462 1463 1464 1464 1464 1464 1464 1463 1462 1462 1461 1459 1458 1457 1455 1454 1453 1452 1451 1450 1448 1447 1446 1444 1443 1441 1439 1437 1435 1433 1431
1439 1440 1442 1443 1445 1446 1448 1449 1450 1451 1452 1453 1454 1456 1457 1457 1457 1457 1457 1457 1456 1456 1455 1454 1453 1451 1450 1449 1448 1446 1445 1444 1443 1442 1440 1439 1437 1435 1433 1431 1429 1426 1424
1433 1434 1435 1437 1438 1439 1440 1442 1443 1444 1444 1445 1447 1448 1449 1449 1449 1450 1450 1450 1450 1449 1449 1448 1447 1446 1444 1443 1442 1441 1440 1438 1437 1436 1434 1432 1431 1429 1427 1424 1422 1419 1417
1427 1428 1429 1430 1431 1432 1433 1434 1435 1436 1437 1438 1439 1440 1440 1441 1441 1442 1442 1442 1443 1442 1442 1441 1440 1440 1439 1437 1436 1435 1433 1432 1431 1430 1428 1426 1424 1422 1420 1417 1415 1412 1410
1421 1422 1423 1424 1425 1426 1427 1427 1428 1429 1429 1430 1431 1432 1432 1432 1433 1434 1434 1435 1435 1435 1435 1435 1434 1433 1432 1431 1430 1429 1427 1426 1425 1423 1421 1419 1417 1415 1412 1410 1407 1405 1402
1416 1416 1417 1418 1419 1420 1420 1421 1421 1422 1422 1422 1423 1423 1424 1424 1425 1426 1427 1427 1428 1428 1428 1428 1427 1427 1426 1425 1423 1422 1421 1420 1418 1416 1414 1412 1409 1407 1405 1402 1400 1397 1395
1411 1411 1412 1412 1413 1413 1414 1414 1414 1415 1415 1415 1415 1416 1416 1417 1418 1419 1419 1420 1421 1421 1421 1421 1421 1420 1420 1418 1417 1416 1414 1413 1411 1409 1406 1404 1402 1399 1397 1394 1392 1390 1387
1406 1406 1407 1407 1407 1407 1408 1408 1408 1408 1408 1408 1409 1409 1409 1410 1411 1412 1413 1414 1414 1415 1415 1415 1415 1414 1413 1412 1410 1409 1407 1405 1404 1401 1399 1396 1394 1392 1389 1387 1384 1382 1379